This is the latest recevied weather packets stored in our database for station/object IK0TIX. If no packets are shown the sender has not sent any weather packets the latest 10 day(s).
| Time | Temp. | Humidity | Pressure | Rain* | Wind** | Luminosity | Snow |
|---|---|---|---|---|---|---|---|
| 1777348772 | 13.33° C | 79% | 1016.8 hPa | 0 mm | - | - | - |
| 1777345784 | 13.89° C | 82% | 1016.9 hPa | 0 mm | - | - | - |
| 1777345483 | 13.89° C | 81% | 1016.9 hPa | 0 mm | - | - | - |
| 1777345172 | 13.89° C | 81% | 1017 hPa | 0 mm | - | - | - |
| 1777344891 | 14.44° C | 81% | 1016.9 hPa | 0 mm | - | - | - |
| 1777344575 | 14.44° C | 79% | 1017 hPa | 0 mm | - | - | - |
| 1777343991 | 15° C | 78% | 1017.1 hPa | 0 mm | - | - | - |
| 1777343408 | 15° C | 78% | 1017.1 hPa | 0 mm | - | - | - |
| 1777342174 | 15° C | 79% | 1017.2 hPa | 0 mm | - | - | - |
| 1777341869 | 15.56° C | 79% | 1017.2 hPa | 0 mm | - | - | - |
| 1777340985 | 15.56° C | 79% | 1017.3 hPa | 0 mm | - | - | - |
| 1777338869 | 15.56° C | 79% | 1017.4 hPa | 0 mm | - | - | - |
| 1777337980 | 15.56° C | 80% | 1017.4 hPa | 0 mm | - | - | - |
| 1777334375 | 16.11° C | 77% | 1017.7 hPa | 0 mm | - | - | - |
| 1777333783 | 16.11° C | 76% | 1017.7 hPa | 0 mm | - | - | - |
| 1777333476 | 16.11° C | 76% | 1017.8 hPa | 0 mm | - | - | - |
| 1777332904 | 16.11° C | 76% | 1017.7 hPa | 0 mm | - | - | - |
| 1777330478 | 16.67° C | 74% | 1017.9 hPa | 0 mm | - | - | - |
| 1777329879 | 16.67° C | 74% | 1017.9 hPa | 0 mm | - | - | - |
| 1777326882 | 17.22° C | 76% | 1018.1 hPa | 0 mm | - | - | - |
| 1777326585 | 17.22° C | 76% | 1018.1 hPa | 0 mm | - | - | - |
| 1777326282 | 17.22° C | 75% | 1018.1 hPa | 0 mm | - | - | - |
| 1777325083 | 17.78° C | 74% | 1018.2 hPa | 0 mm | - | - | - |
| 1777323270 | 17.78° C | 73% | 1018.4 hPa | 0 mm | - | - | - |
| 1777322679 | 17.78° C | 72% | 1018.4 hPa | 0 mm | - | - | - |
* Rain latest hour (hover to see other rain measurements)
** Current wind speed in m/s (hover to see current wind gust speed)